Location: G�nzburg
(48.4565°N, 10.3217°E)
Time: 21:16:14
(UTC+01:00)

ISS - Pass Details

Date: 10 January 2018
Orbit: 402 x 407 km, 51.6° (Epoch: 23 January)

Event Time Altitude Azimuth Distance (km) Brightness Sun altitude
Exits shadow 04:58:09 12° 75° (ENE) 1,349 -0.4 -30.7°
Drops below altitude 10° 04:58:28 10° 77° (ENE) 1,469 -0.1 -30.6°
Sets 05:00:36 0° 84° (E) 2,330 1.2 -30.3°
